Location: Doverdale
(52.2833°N, 2.2000°W)
Time: 03:38:15
(UTC+00:00)

Cosmos 1980 Rocket - Pass Details

Date: 04 March 2021
Orbit: 828 x 851 km, 71.0° (Epoch: 15 April)

Event Time Altitude Azimuth Distance (km) Brightness Sun altitude
Rises 00:12:39 0° 327° (NNW) 3,428 6.0 -44.1°
Reaches altitude 10° 00:15:48 10° 344° (NNW) 2,491 5.2 -44.1°
Enters shadow 00:17:29 16° 359° (N) 2,111 4.8 -44.1°
